Natchitoches, LA

6:33 PM CDT on May 23, 2018 (GMT -0500)
Natchitoches Regional

Weather History for KIER - January, 2014

Change the Weather History Date:

Friday, January 3, 2014

  Actual Average Record
Temperature  
Mean Temperature 38 °F -  
Max Temperature 47 °F 55 °F 78 °F (2009)
Min Temperature 28 °F 37 °F 15 °F (1979)
Degree Days  
Heating Degree Days 28    
Moisture  
Dew Point 23 °F    
Average Humidity 61    
Maximum Humidity 79    
Minimum Humidity 34    
Precipitation  
Precipitation 0.00 in - - ()
Sea Level Pressure  
Sea Level Pressure 30.40 in    
Wind  
Wind Speed 5 mph (East)    
Max Wind Speed 9 mph    
Max Gust Speed -    
Visibility 10 miles    
Events      
Averages and records for this station are not official NWS values.
T = Trace of Precipitation, MM = Missing Value Source: NWS Daily Summary

Daily Weather History Graph

Daily Weather History Graph

Search for Another Location

Airport or City:

Astronomy

Jan. 03, 2014 Rise Set
Actual Time 7:12 AM CST 5:21 PM CST
Civil Twilight 6:45 AM CST 5:48 PM CST
Nautical Twilight 6:15 AM CST 6:18 PM CST
Astronomical Twilight 5:46 AM CST 6:48 PM CST
Moon 8:49 AM CST (1/3) 8:19 PM CST (1/3)
Length of Visible Light 11h 02m
Length of Day
10h 08m
Waxing Crescent, 8% of the Moon is Illuminated
Jan 3
Waxing Crescent
Jan 7
First Quarter
Jan 15
Full
Jan 23
Last Quarter
Jan 30
New

Hourly Weather History & Observations

Time (CST) Temp. Windchill Dew Point Humidity Pressure Visibility Wind Dir Wind Speed Gust Speed Precip Events Conditions
12:15 AM 31.8 °F 26.2 °F 24.8 °F 75% 30.42 in 10.0 mi NNW 5.8 mph - N/A   Clear
12:35 AM 31.6 °F 27.0 °F 25.7 °F 79% 30.43 in 10.0 mi NNW 4.6 mph - N/A   Clear
12:55 AM 31.8 °F 26.2 °F 25.2 °F 76% 30.43 in 10.0 mi NNW 5.8 mph - N/A   Clear
1:15 AM 31.3 °F 25.6 °F 25.0 °F 77% 30.44 in 10.0 mi North 5.8 mph - N/A   Clear
1:35 AM 31.1 °F 24.5 °F 25.2 °F 79% 30.45 in 10.0 mi North 6.9 mph - N/A   Clear
1:55 AM 31.1 °F 25.4 °F 24.8 °F 77% 30.45 in 10.0 mi North 5.8 mph - N/A   Clear
2:15 AM 30.7 °F 24.9 °F 24.4 °F 77% 30.45 in 10.0 mi NNW 5.8 mph - N/A   Clear
2:35 AM 30.2 °F 26.7 °F 24.3 °F 79% 30.46 in 10.0 mi NNW 3.5 mph - N/A   Clear
2:55 AM 30.4 °F 25.6 °F 23.9 °F 77% 30.46 in 10.0 mi North 4.6 mph - N/A   Clear
3:15 AM 30.0 °F - 23.7 °F 77% 30.46 in 10.0 mi Calm Calm - N/A   Clear
3:35 AM 29.8 °F 26.3 °F 22.6 °F 75% 30.47 in 10.0 mi NNW 3.5 mph - N/A   Clear
3:55 AM 29.5 °F 23.4 °F 22.8 °F 76% 30.47 in 10.0 mi North 5.8 mph - N/A   Clear
4:15 AM 28.9 °F 22.8 °F 22.8 °F 78% 30.46 in 10.0 mi North 5.8 mph - N/A   Clear
4:35 AM 28.9 °F 25.2 °F 22.3 °F 76% 30.46 in 10.0 mi NNW 3.5 mph - N/A   Clear
4:55 AM 28.8 °F 25.0 °F 22.3 °F 77% 30.46 in 10.0 mi North 3.5 mph - N/A   Clear
5:15 AM 28.9 °F 23.9 °F 22.1 °F 76% 30.46 in 10.0 mi NNE 4.6 mph - N/A   Clear
5:35 AM 29.7 °F 24.7 °F 22.6 °F 75% 30.47 in 10.0 mi NE 4.6 mph - N/A   Clear
5:55 AM 29.7 °F 26.1 °F 22.1 °F 73% 30.46 in 10.0 mi NE 3.5 mph - N/A   Clear
6:15 AM 29.3 °F 22.3 °F 22.1 °F 75% 30.47 in 10.0 mi ENE 6.9 mph - N/A   Clear
6:35 AM 29.1 °F 25.4 °F 21.7 °F 74% 30.48 in 10.0 mi ENE 3.5 mph - N/A   Clear
6:55 AM 28.4 °F - 21.2 °F 74% 30.49 in 10.0 mi Calm Calm - N/A   Clear
7:15 AM 28.4 °F 23.3 °F 21.2 °F 74% 30.49 in 10.0 mi East 4.6 mph - N/A   Clear
7:35 AM 28.9 °F 21.9 °F 21.7 °F 74% 30.49 in 10.0 mi East 6.9 mph - N/A   Clear
7:55 AM 29.8 °F 23.9 °F 22.3 °F 73% 30.50 in 10.0 mi East 5.8 mph - N/A   Clear
8:15 AM 30.6 °F 24.7 °F 22.6 °F 72% 30.50 in 10.0 mi East 5.8 mph - N/A   Clear
8:35 AM 31.1 °F 25.4 °F 22.5 °F 70% 30.50 in 10.0 mi East 5.8 mph - N/A   Clear
8:55 AM 32.0 °F 25.6 °F 22.5 °F 68% 30.51 in 10.0 mi East 6.9 mph - N/A   Clear
9:15 AM 32.5 °F 24.8 °F 22.1 °F 65% 30.51 in 10.0 mi East 9.2 mph - N/A   Clear
9:35 AM 33.8 °F 27.7 °F 22.5 °F 63% 30.51 in 10.0 mi ESE 6.9 mph - N/A   Clear
9:55 AM 34.3 °F 28.4 °F 21.6 °F 60% 30.51 in 10.0 mi East 6.9 mph - N/A   Clear
10:15 AM 36.1 °F 29.9 °F 22.1 °F 57% 30.50 in 10.0 mi East 8.1 mph - N/A   Clear
10:35 AM 36.1 °F 31.4 °F 20.7 °F 53% 30.50 in 10.0 mi ENE 5.8 mph - N/A   Clear
10:55 AM 37.6 °F 34.0 °F 20.7 °F 51% 30.49 in 10.0 mi East 4.6 mph - N/A   Clear
11:15 AM 38.8 °F - 21.6 °F 50% 30.48 in 10.0 mi Calm Calm - N/A   Clear
11:35 AM 39.9 °F 36.7 °F 20.8 °F 47% 30.47 in 10.0 mi ENE 4.6 mph - N/A   Clear
11:55 AM 41.0 °F - 20.5 °F 44% 30.46 in 10.0 mi Calm Calm - N/A   Clear
12:15 PM 41.9 °F 39.0 °F 20.7 °F 43% 30.45 in 10.0 mi East 4.6 mph - N/A   Clear
12:35 PM 42.6 °F 39.0 °F 20.7 °F 42% 30.43 in 10.0 mi ENE 5.8 mph - N/A   Clear
12:55 PM 44.2 °F - 21.2 °F 40% 30.42 in 10.0 mi Calm Calm - N/A   Clear
1:15 PM 44.2 °F 41.0 °F 19.9 °F 38% 30.40 in 10.0 mi ENE 5.8 mph - N/A   Clear
1:35 PM 45.1 °F 42.8 °F 20.8 °F 38% 30.39 in 10.0 mi East 4.6 mph - N/A   Clear
1:55 PM 46.0 °F - 21.0 °F 37% 30.38 in 10.0 mi Calm Calm - N/A   Clear
2:15 PM 46.2 °F 45.0 °F 20.8 °F 37% 30.37 in 10.0 mi ESE 3.5 mph - N/A   Clear
2:35 PM 46.8 °F - 20.5 °F 35% 30.37 in 10.0 mi Calm Calm - N/A   Clear
2:55 PM 47.3 °F - 20.1 °F 34% 30.36 in 10.0 mi ENE 4.6 mph - N/A   Clear
3:15 PM 47.3 °F - 19.8 °F 34% 30.35 in 10.0 mi Calm Calm - N/A   Clear
3:35 PM 47.3 °F - 19.9 °F 34% 30.34 in 10.0 mi Calm Calm - N/A   Clear
3:55 PM 46.9 °F - 19.6 °F 34% 30.34 in 10.0 mi Calm Calm - N/A   Clear
4:15 PM 46.8 °F - 20.3 °F 35% 30.34 in 10.0 mi SE 4.6 mph - N/A   Clear
4:35 PM 46.0 °F 43.9 °F 20.8 °F 37% 30.33 in 10.0 mi South 4.6 mph - N/A   Clear
4:55 PM 44.6 °F 41.4 °F 21.4 °F 40% 30.33 in 10.0 mi SE 5.8 mph - N/A   Clear
5:15 PM 41.5 °F 38.6 °F 23.0 °F 48% 30.32 in 10.0 mi SSE 4.6 mph - N/A   Clear
5:35 PM 40.1 °F 36.1 °F 23.9 °F 52% 30.31 in 10.0 mi SSE 5.8 mph - N/A   Clear
5:55 PM 39.2 °F 37.0 °F 24.4 °F 56% 30.31 in 10.0 mi SSE 3.5 mph - N/A   Clear
6:15 PM 38.7 °F - 24.4 °F 57% 30.30 in 10.0 mi Calm Calm - N/A   Clear
6:35 PM 39.2 °F 35.9 °F 23.4 °F 53% 30.29 in 10.0 mi SE 4.6 mph - N/A   Clear
6:55 PM 37.6 °F 34.0 °F 23.0 °F 56% 30.29 in 10.0 mi SE 4.6 mph - N/A   Clear
7:15 PM 36.1 °F 31.4 °F 23.5 °F 60% 30.28 in 10.0 mi SE 5.8 mph - N/A   Clear
7:35 PM 35.6 °F 30.7 °F 23.5 °F 62% 30.27 in 10.0 mi SE 5.8 mph - N/A   Clear
7:55 PM 36.3 °F 32.5 °F 23.9 °F 61% 30.27 in 10.0 mi SE 4.6 mph - N/A   Clear
8:15 PM 36.1 °F 31.4 °F 23.9 °F 61% 30.27 in 10.0 mi SE 5.8 mph - N/A   Clear
8:35 PM 35.4 °F 29.7 °F 24.3 °F 64% 30.27 in 10.0 mi SSE 6.9 mph - N/A   Clear
8:55 PM 35.8 °F 30.1 °F 24.6 °F 64% 30.27 in 10.0 mi SSE 6.9 mph - N/A   Clear
9:15 PM 34.0 °F 28.0 °F 23.9 °F 67% 30.27 in 10.0 mi SSE 6.9 mph - N/A   Clear
9:35 PM 32.9 °F 27.5 °F 24.4 °F 71% 30.27 in 10.0 mi South 5.8 mph - N/A   Clear
9:55 PM 32.9 °F 27.5 °F 24.6 °F 72% 30.27 in 10.0 mi South 5.8 mph - N/A   Clear
10:15 PM 32.5 °F 29.3 °F 24.1 °F 71% 30.27 in 10.0 mi South 3.5 mph - N/A   Clear
10:35 PM 32.0 °F 27.5 °F 23.9 °F 72% 30.27 in 10.0 mi South 4.6 mph - N/A   Clear
10:55 PM 32.0 °F 27.5 °F 23.7 °F 71% 30.27 in 10.0 mi South 4.6 mph - N/A   Clear
11:15 PM 31.1 °F 25.4 °F 23.5 °F 74% 30.26 in 10.0 mi South 5.8 mph - N/A   Clear
11:35 PM 31.1 °F 26.4 °F 23.7 °F 74% 30.25 in 10.0 mi South 4.6 mph - N/A   Clear
11:55 PM 30.4 °F 25.6 °F 24.1 °F 77% 30.25 in 10.0 mi SSE 4.6 mph - N/A   Clear